Time,TemperatureF,DewpointF,PressureIn,WindDirection,WindDirectionDegrees,WindSpeedMPH,WindSpeedGustMPH,Humidity,HourlyPrecipIn,Conditions,Clouds,dailyrainin,SoftwareType,DateUTC
2013-05-20 00:01:00,46.0,22.0,-100.00,ESE,117,3.0,7.0,38,-99.99,,,-99.99,,2013-05-20 07:01:00,
2013-05-20 00:11:00,46.0,22.0,-100.00,ESE,117,3.0,7.0,38,-99.99,,,-99.99,,2013-05-20 07:11:00,
2013-05-20 00:21:00,46.0,20.0,-100.00,ESE,113,6.0,8.0,35,-99.99,,,-99.99,,2013-05-20 07:21:00,
2013-05-20 00:32:00,46.0,20.0,-100.00,ESE,113,6.0,8.0,35,-99.99,,,-99.99,,2013-05-20 07:32:00,
2013-05-20 00:42:00,45.0,28.0,-100.00,SSE,150,1.0,3.0,52,-99.99,,,-99.99,,2013-05-20 07:42:00,
2013-05-20 00:52:00,45.0,28.0,-100.00,SSE,150,1.0,3.0,52,-99.99,,,-99.99,,2013-05-20 07:52:00,
2013-05-20 01:01:00,44.0,31.0,-100.00,West,270,3.0,4.0,61,-99.99,,,-99.99,,2013-05-20 08:01:00,
2013-05-20 01:11:00,44.0,31.0,-100.00,West,270,3.0,4.0,61,-99.99,,,-99.99,,2013-05-20 08:11:00,
2013-05-20 01:21:00,44.0,28.0,-100.00,WSW,258,2.0,4.0,54,-99.99,,,-99.99,,2013-05-20 08:21:00,
2013-05-20 01:31:00,44.0,28.0,-100.00,WSW,258,2.0,4.0,54,-99.99,,,-99.99,,2013-05-20 08:31:00,
2013-05-20 01:41:00,44.0,28.0,-100.00,SE,133,0.0,2.0,52,-99.99,,,-99.99,,2013-05-20 08:41:00,
2013-05-20 01:52:00,44.0,28.0,-100.00,SE,133,0.0,2.0,52,-99.99,,,-99.99,,2013-05-20 08:52:00,
2013-05-20 02:01:00,43.0,27.0,-100.00,NNE,28,0.0,2.0,53,-99.99,,,-99.99,,2013-05-20 09:01:00,
2013-05-20 02:12:00,43.0,27.0,-100.00,NNE,28,0.0,2.0,53,-99.99,,,-99.99,,2013-05-20 09:12:00,
2013-05-20 02:21:00,42.0,29.0,-100.00,NE,47,1.0,4.0,59,-99.99,,,-99.99,,2013-05-20 09:21:00,
2013-05-20 02:32:00,41.0,30.0,-100.00,ESE,123,2.0,5.0,65,-99.99,,,-99.99,,2013-05-20 09:32:00,
2013-05-20 02:43:00,41.0,29.0,-100.00,ESE,110,2.0,4.0,60,-99.99,,,-99.99,,2013-05-20 09:43:00,
2013-05-20 02:52:00,41.0,28.0,-100.00,ESE,123,4.0,6.0,60,-99.99,,,-99.99,,2013-05-20 09:52:00,
2013-05-20 03:03:00,40.0,28.0,-100.00,SE,124,3.0,6.0,62,-99.99,,,-99.99,,2013-05-20 10:03:00,
2013-05-20 03:12:00,40.0,28.0,-100.00,SE,124,3.0,6.0,62,-99.99,,,-99.99,,2013-05-20 10:12:00,
2013-05-20 03:22:00,41.0,26.0,-100.00,ESE,121,4.0,6.0,54,-99.99,,,-99.99,,2013-05-20 10:22:00,
2013-05-20 03:32:00,41.0,27.0,-100.00,SE,131,3.0,6.0,56,-99.99,,,-99.99,,2013-05-20 10:32:00,
2013-05-20 03:42:00,40.0,25.0,-100.00,SE,124,2.0,6.0,55,-99.99,,,-99.99,,2013-05-20 10:42:00,
2013-05-20 03:52:00,40.0,25.0,-100.00,ESE,120,4.0,6.0,55,-99.99,,,-99.99,,2013-05-20 10:52:00,
2013-05-20 04:02:00,40.0,25.0,-100.00,ESE,116,5.0,8.0,54,-99.99,,,-99.99,,2013-05-20 11:02:00,
2013-05-20 04:12:00,40.0,24.0,-100.00,ESE,117,5.0,7.0,52,-99.99,,,-99.99,,2013-05-20 11:12:00,
2013-05-20 04:21:00,41.0,24.0,-100.00,ESE,117,5.0,7.0,51,-99.99,,,-99.99,,2013-05-20 11:21:00,
2013-05-20 04:32:00,40.0,23.0,-100.00,ESE,116,5.0,7.0,50,-99.99,,,-99.99,,2013-05-20 11:32:00,
2013-05-20 04:41:00,40.0,23.0,-100.00,ESE,117,6.0,7.0,50,-99.99,,,-99.99,,2013-05-20 11:41:00,
2013-05-20 04:51:00,40.0,23.0,-100.00,ESE,117,5.0,6.0,51,-99.99,,,-99.99,,2013-05-20 11:51:00,
2013-05-20 05:01:00,40.0,23.0,-100.00,ESE,116,5.0,6.0,51,-99.99,,,-99.99,,2013-05-20 12:01:00,
2013-05-20 05:11:00,40.0,24.0,-100.00,ESE,116,6.0,8.0,52,-99.99,,,-99.99,,2013-05-20 12:11:00,
2013-05-20 05:21:00,40.0,24.0,-100.00,ESE,113,6.0,7.0,51,-99.99,,,-99.99,,2013-05-20 12:21:00,
2013-05-20 05:31:00,40.0,24.0,-100.00,ESE,113,5.0,7.0,53,-99.99,,,-99.99,,2013-05-20 12:31:00,
2013-05-20 05:41:00,39.0,24.0,-100.00,ESE,113,5.0,7.0,53,-99.99,,,-99.99,,2013-05-20 12:41:00,
2013-05-20 05:51:00,39.0,23.0,-100.00,ESE,113,3.0,5.0,52,-99.99,,,-99.99,,2013-05-20 12:51:00,
2013-05-20 06:01:00,39.0,22.0,-100.00,ESE,110,3.0,5.0,50,-99.99,,,-99.99,,2013-05-20 13:01:00,
2013-05-20 06:11:00,39.0,22.0,-100.00,ESE,110,3.0,5.0,50,-99.99,,,-99.99,,2013-05-20 13:11:00,
2013-05-20 06:22:00,38.0,25.0,-100.00,SE,126,2.0,5.0,60,-99.99,,,-99.99,,2013-05-20 13:22:00,
2013-05-20 06:31:00,38.0,25.0,-100.00,SE,126,2.0,5.0,60,-99.99,,,-99.99,,2013-05-20 13:31:00,
2013-05-20 06:41:00,37.0,27.0,-100.00,ESE,123,2.0,4.0,65,-99.99,,,-99.99,,2013-05-20 13:41:00,
2013-05-20 06:52:00,37.0,27.0,-100.00,ESE,123,2.0,4.0,65,-99.99,,,-99.99,,2013-05-20 13:52:00,
2013-05-20 07:01:00,40.0,26.0,-100.00,ESE,119,3.0,6.0,56,-99.99,,,-99.99,,2013-05-20 14:01:00,
2013-05-20 07:11:00,40.0,26.0,-100.00,ESE,119,3.0,6.0,56,-99.99,,,-99.99,,2013-05-20 14:11:00,
2013-05-20 07:22:00,43.0,25.0,-100.00,ESE,112,4.0,6.0,49,-99.99,,,-99.99,,2013-05-20 14:22:00,
2013-05-20 07:31:00,43.0,25.0,-100.00,ESE,112,4.0,6.0,49,-99.99,,,-99.99,,2013-05-20 14:31:00,
2013-05-20 07:41:00,46.0,26.0,-100.00,ESE,103,5.0,7.0,45,-99.99,,,-99.99,,2013-05-20 14:41:00,
2013-05-20 07:52:00,46.0,26.0,-100.00,ESE,103,5.0,7.0,45,-99.99,,,-99.99,,2013-05-20 14:52:00,
2013-05-20 08:01:00,48.0,31.0,-100.00,SW,229,1.0,3.0,51,-99.99,,,-99.99,,2013-05-20 15:01:00,
2013-05-20 08:11:00,48.0,31.0,-100.00,SW,229,1.0,3.0,51,-99.99,,,-99.99,,2013-05-20 15:11:00,
2013-05-20 08:21:00,49.0,33.0,-100.00,WSW,248,2.0,3.0,53,-99.99,,,-99.99,,2013-05-20 15:21:00,
2013-05-20 08:33:00,49.0,33.0,-100.00,WSW,248,2.0,3.0,53,-99.99,,,-99.99,,2013-05-20 15:33:00,
2013-05-20 08:42:00,50.0,27.0,-100.00,West,263,2.0,4.0,41,-99.99,,,-99.99,,2013-05-20 15:42:00,
2013-05-20 08:53:00,50.0,27.0,-100.00,West,263,2.0,4.0,41,-99.99,,,-99.99,,2013-05-20 15:53:00,
2013-05-20 09:03:00,52.0,30.0,-100.00,West,272,2.0,5.0,42,-99.99,,,-99.99,,2013-05-20 16:03:00,
2013-05-20 09:12:00,52.0,30.0,-100.00,West,272,2.0,5.0,42,-99.99,,,-99.99,,2013-05-20 16:12:00,
2013-05-20 09:22:00,52.0,30.0,-100.00,West,272,2.0,5.0,42,-99.99,,,-99.99,,2013-05-20 16:22:00,
2013-05-20 23:32:00,57.0,36.0,-100.00,SW,215,0.0,2.0,45,-99.99,,,-99.99,,2013-05-21 06:32:00,
2013-05-20 23:41:00,57.0,36.0,-100.00,SW,215,0.0,2.0,45,-99.99,,,-99.99,,2013-05-21 06:41:00,
2013-05-20 23:51:00,55.0,38.0,-100.00,SE,134,2.0,4.0,53,-99.99,,,-99.99,,2013-05-21 06:51:00,